Weather History for Marianna, FL

Change the Weather History Date:

Monday, March 24, 2014

  Actual Average Record
Temperature  
Mean Temperature 61 °F 62 °F  
Max Temperature 68 °F 74 °F 86 °F (2011)
Min Temperature 53 °F 49 °F 37 °F (2002)
Degree Days  
Heating Degree Days 4    
Month to date heating degree days 169  
Since 1 July heating degree days 1629  
Cooling Degree Days 0    
Month to date cooling degree days 3  
Year to date cooling degree days 12  
Growing Degree Days 10 (Base 50)    
Moisture  
Dew Point 46 °F    
Average Humidity 60    
Maximum Humidity 75    
Minimum Humidity 45    
Precipitation  
Precipitation 0.00 in 0.18 in 0.24 in (2013)
Month to date precipitation 5.83 4.03  
Year to date precipitation 13.16 14.01  
Sea Level Pressure  
Sea Level Pressure 30.04 in    
Wind  
Wind Speed 7 mph (ENE)    
Max Wind Speed 15 mph    
Max Gust Speed 22 mph    
Visibility 10 miles    
Events      
T = Trace of Precipitation, MM = Missing Value Source: NWS Daily Summary

Daily Weather History Graph

Daily Weather History Graph

Search for Another Location

Airport:

Trip Planner

Search our weather history database for the weather conditions in past years. The results will help you decide how hot, cold, wet, or windy it might be!

Date:

Astronomy

Mar. 24, 2014 Rise Set
Actual Time 6:39 AM CDT 6:54 PM CDT
Civil Twilight 6:15 AM CDT 7:18 PM CDT
Nautical Twilight 5:47 AM CDT 7:47 PM CDT
Astronomical Twilight 5:18 AM CDT 8:15 PM CDT
Moon 1:47 AM CDT (3/24) 12:40 PM CDT (3/24)
Length of Visible Light 13h 03m
Length of Day
12h 15m
Last Quarter, 43% of the Moon is Illuminated
Mar 24
Last Quarter
Mar 30
New
Apr 7
First Quarter
Apr 15
Full
Apr 22
Last Quarter

Hourly Weather History & Observations

Time (CDT) Temp. Dew Point Humidity Pressure Visibility Wind Dir Wind Speed Gust Speed Precip Events Conditions
12:53 AM 57.0 °F 45.0 °F 64% 30.12 in 10.0 mi North 11.5 mph - N/A   Mostly Cloudy
1:53 AM 55.9 °F 44.1 °F 64% 30.09 in 10.0 mi NE 6.9 mph - N/A   Mostly Cloudy
2:53 AM 55.9 °F 44.1 °F 64% 30.09 in 10.0 mi NNE 10.4 mph - N/A   Clear
3:53 AM 55.0 °F 43.0 °F 64% 30.06 in 10.0 mi NNE 9.2 mph - N/A   Clear
4:53 AM 54.0 °F 41.0 °F 62% 30.09 in 10.0 mi NNE 6.9 mph - N/A   Mostly Cloudy
5:53 AM 54.0 °F 39.9 °F 59% 30.10 in 10.0 mi NNE 6.9 mph - N/A   Mostly Cloudy
6:53 AM 53.1 °F 39.9 °F 61% 30.09 in 10.0 mi NE 9.2 mph - N/A   Partly Cloudy
7:53 AM 53.1 °F 39.9 °F 61% 30.12 in 10.0 mi NNE 8.1 mph - N/A   Overcast
8:53 AM 55.9 °F 41.0 °F 57% 30.12 in 10.0 mi NE 11.5 mph - N/A   Partly Cloudy
9:53 AM 60.1 °F 43.0 °F 53% 30.12 in 10.0 mi ENE 12.7 mph - N/A   Clear
10:53 AM 61.0 °F 45.0 °F 56% 30.12 in 10.0 mi NE 11.5 mph - N/A   Overcast
11:53 AM 64.0 °F 46.0 °F 52% 30.11 in 10.0 mi East 9.2 mph - N/A   Scattered Clouds
12:53 PM 68.0 °F 46.9 °F 47% 30.06 in 10.0 mi Variable 6.9 mph - N/A   Scattered Clouds
1:53 PM 66.9 °F 46.0 °F 47% 30.04 in 10.0 mi NE 6.9 mph - N/A   Scattered Clouds
2:53 PM 66.9 °F 46.9 °F 49% 30.00 in 10.0 mi NE 6.9 mph - N/A   Scattered Clouds
3:53 PM 66.9 °F 46.9 °F 49% 29.97 in 10.0 mi NE 9.2 mph - N/A   Mostly Cloudy
4:53 PM 66.9 °F 46.9 °F 49% 29.96 in 10.0 mi ENE 8.1 mph - N/A   Mostly Cloudy
5:53 PM 66.0 °F 48.0 °F 52% 29.96 in 10.0 mi ENE 5.8 mph - N/A   Overcast
6:53 PM 64.0 °F 48.9 °F 58% 29.96 in 10.0 mi East 4.6 mph - N/A   Overcast
7:53 PM 63.0 °F 48.9 °F 60% 29.95 in 10.0 mi ENE 4.6 mph - N/A   Overcast
8:53 PM 62.1 °F 50.0 °F 65% 29.95 in 10.0 mi SE 3.5 mph - N/A   Overcast
9:53 PM 61.0 °F 51.1 °F 70% 29.95 in 10.0 mi Calm Calm - N/A   Overcast
10:44 PM 61.0 °F 52.0 °F 72% 29.96 in 10.0 mi SSE 8.1 mph - N/A   Overcast
10:53 PM 61.0 °F 52.0 °F 72% 29.96 in 10.0 mi South 5.8 mph - N/A   Overcast
11:53 PM 59.0 °F 51.1 °F 75% 29.97 in 10.0 mi SSE 6.9 mph - N/A   Overcast